Year,Month,Day,Hour,Minute,Value (Times are PST for temperature in C)
2010,07,23,00,00,12.60
2010,07,23,00,01,12.60
2010,07,23,00,02,12.60
2010,07,23,00,03,12.60
2010,07,23,00,04,12.60
2010,07,23,00,05,12.60
2010,07,23,00,06,12.60
2010,07,23,00,07,12.60
2010,07,23,00,08,12.60
2010,07,23,00,09,12.60
2010,07,23,00,10,12.60
2010,07,23,00,11,12.50
2010,07,23,00,12,12.50
2010,07,23,00,13,12.50
2010,07,23,00,14,12.50
2010,07,23,00,15,12.50
2010,07,23,00,16,12.50
2010,07,23,00,17,12.40
2010,07,23,00,18,12.40
2010,07,23,00,19,12.40
2010,07,23,00,20,12.40
2010,07,23,00,21,12.40
2010,07,23,00,22,12.40
2010,07,23,00,23,12.40
2010,07,23,00,24,12.30
2010,07,23,00,25,12.30
2010,07,23,00,26,12.30
2010,07,23,00,27,12.30
2010,07,23,00,28,12.30
2010,07,23,00,29,12.30
2010,07,23,00,30,12.30
2010,07,23,00,31,12.40
2010,07,23,00,32,12.40
2010,07,23,00,33,12.40
2010,07,23,00,34,12.30
2010,07,23,00,35,12.30
2010,07,23,00,36,12.30
2010,07,23,00,37,12.30
2010,07,23,00,38,12.30
2010,07,23,00,39,12.30
2010,07,23,00,40,12.30
2010,07,23,00,41,12.30
2010,07,23,00,42,12.30
2010,07,23,00,43,12.30
2010,07,23,00,44,12.30
2010,07,23,00,45,12.20
2010,07,23,00,46,12.20
2010,07,23,00,47,12.20
2010,07,23,00,48,12.20
2010,07,23,00,49,12.20
2010,07,23,00,50,12.20
2010,07,23,00,51,12.20
2010,07,23,00,52,12.20
2010,07,23,00,53,12.20
2010,07,23,00,54,12.20
2010,07,23,00,55,12.20
2010,07,23,00,56,12.20
2010,07,23,00,57,12.20
2010,07,23,00,58,12.20
2010,07,23,00,59,12.20
2010,07,23,01,00,12.20
2010,07,23,01,01,12.20
2010,07,23,01,02,12.20
2010,07,23,01,03,12.20
2010,07,23,01,04,12.20
2010,07,23,01,05,12.20
2010,07,23,01,06,12.20
2010,07,23,01,07,12.10
2010,07,23,01,08,12.10
2010,07,23,01,09,12.10
2010,07,23,01,10,12.10
2010,07,23,01,11,12.10
2010,07,23,01,12,12.10
2010,07,23,01,13,12.10
2010,07,23,01,14,12.10
2010,07,23,01,15,12.10
2010,07,23,01,16,12.10
2010,07,23,01,17,12.10
2010,07,23,01,18,12.10
2010,07,23,01,19,12.00
2010,07,23,01,20,12.00
2010,07,23,01,21,12.00
2010,07,23,01,22,12.00
2010,07,23,01,23,11.90
2010,07,23,01,24,11.90
2010,07,23,01,25,11.90
2010,07,23,01,26,11.90
2010,07,23,01,27,11.90
2010,07,23,01,28,11.90
2010,07,23,01,29,11.90
2010,07,23,01,30,11.90
2010,07,23,01,31,11.90
2010,07,23,01,32,11.90
2010,07,23,01,33,11.90
2010,07,23,01,34,11.90
2010,07,23,01,35,11.90
2010,07,23,01,36,11.80
2010,07,23,01,37,11.80
2010,07,23,01,38,11.80
2010,07,23,01,39,11.80
2010,07,23,01,40,11.80
2010,07,23,01,41,11.80
2010,07,23,01,42,11.80
2010,07,23,01,43,11.90
2010,07,23,01,44,11.90
2010,07,23,01,45,11.90
2010,07,23,01,46,11.90
2010,07,23,01,47,11.90
2010,07,23,01,48,11.80
2010,07,23,01,49,11.80
2010,07,23,01,50,11.80
2010,07,23,01,51,11.80
2010,07,23,01,52,11.80
2010,07,23,01,53,11.80
2010,07,23,01,54,11.80
2010,07,23,01,55,11.80
2010,07,23,01,56,11.80
2010,07,23,01,57,11.80
2010,07,23,01,58,11.80
2010,07,23,01,59,11.80
2010,07,23,02,00,11.80
2010,07,23,02,01,11.80
2010,07,23,02,02,11.80
2010,07,23,02,03,11.80
2010,07,23,02,04,11.80
2010,07,23,02,05,11.80
2010,07,23,02,06,11.80
2010,07,23,02,07,11.80
2010,07,23,02,08,11.80
2010,07,23,02,09,11.80
2010,07,23,02,10,11.80
2010,07,23,02,11,11.80
2010,07,23,02,12,11.70
2010,07,23,02,13,11.70
2010,07,23,02,14,11.70
2010,07,23,02,15,11.70
2010,07,23,02,16,11.70
2010,07,23,02,17,11.70
2010,07,23,02,18,11.70
2010,07,23,02,19,11.70
2010,07,23,02,20,11.70
2010,07,23,02,21,11.70
2010,07,23,02,22,11.70
2010,07,23,02,23,11.70
2010,07,23,02,24,11.70
2010,07,23,02,25,11.70
2010,07,23,02,26,11.70
2010,07,23,02,27,11.60
2010,07,23,02,28,11.60
2010,07,23,02,29,11.60
2010,07,23,02,30,11.60
2010,07,23,02,31,11.60
2010,07,23,02,32,11.60
2010,07,23,02,33,11.60
2010,07,23,02,34,11.60
2010,07,23,02,35,11.50
2010,07,23,02,36,11.50
2010,07,23,02,37,11.50
2010,07,23,02,38,11.50
2010,07,23,02,39,11.50
2010,07,23,02,40,11.50
2010,07,23,02,41,11.50
2010,07,23,02,42,11.50
2010,07,23,02,43,11.50
2010,07,23,02,44,11.50
2010,07,23,02,45,11.50
2010,07,23,02,46,11.50
2010,07,23,02,47,11.50
2010,07,23,02,48,11.40
2010,07,23,02,49,11.40
2010,07,23,02,50,11.40
2010,07,23,02,51,11.40
2010,07,23,02,52,11.40
2010,07,23,02,53,11.40
2010,07,23,02,54,11.40
2010,07,23,02,55,11.40
2010,07,23,02,56,11.40
2010,07,23,02,57,11.40
2010,07,23,02,58,11.40
2010,07,23,02,59,11.40
2010,07,23,03,00,11.30
2010,07,23,03,01,11.30
2010,07,23,03,02,11.30
2010,07,23,03,03,11.30
2010,07,23,03,04,11.30
2010,07,23,03,05,11.30
2010,07,23,03,06,11.30
2010,07,23,03,07,11.30
2010,07,23,03,08,11.30
2010,07,23,03,09,11.30
2010,07,23,03,10,11.20
2010,07,23,03,11,11.20
2010,07,23,03,12,11.20
2010,07,23,03,13,11.20
2010,07,23,03,14,11.20
2010,07,23,03,15,11.20
2010,07,23,03,16,11.20
2010,07,23,03,17,11.20
2010,07,23,03,18,11.10
2010,07,23,03,19,11.10
2010,07,23,03,20,11.10
2010,07,23,03,21,11.10
2010,07,23,03,22,11.10
2010,07,23,03,23,11.10
2010,07,23,03,24,11.10
2010,07,23,03,25,11.10
2010,07,23,03,26,11.10
2010,07,23,03,27,11.10
2010,07,23,03,28,11.10
2010,07,23,03,29,11.10
2010,07,23,03,30,11.10
2010,07,23,03,31,11.10
2010,07,23,03,32,11.10
2010,07,23,03,33,11.10
2010,07,23,03,34,11.10
2010,07,23,03,35,11.10
2010,07,23,03,36,11.00
2010,07,23,03,37,11.00
2010,07,23,03,38,11.00
2010,07,23,03,39,11.00
2010,07,23,03,40,11.00
2010,07,23,03,41,11.00
2010,07,23,03,42,11.00
2010,07,23,03,43,11.00
2010,07,23,03,44,11.00
2010,07,23,03,45,11.00
2010,07,23,03,46,11.00
2010,07,23,03,47,11.00
2010,07,23,03,48,11.00
2010,07,23,03,49,11.00
2010,07,23,03,50,11.00
2010,07,23,03,51,11.00
2010,07,23,03,52,11.00
2010,07,23,03,53,11.00
2010,07,23,03,54,11.00
2010,07,23,03,55,11.00
2010,07,23,03,56,11.00
2010,07,23,03,57,11.00
2010,07,23,03,58,11.00
2010,07,23,03,59,11.00
2010,07,23,04,00,10.90
2010,07,23,04,01,10.90
2010,07,23,04,02,10.90
2010,07,23,04,03,10.90
2010,07,23,04,04,10.90
2010,07,23,04,05,10.90
2010,07,23,04,06,10.90
2010,07,23,04,07,10.90
2010,07,23,04,08,10.90
2010,07,23,04,09,10.90
2010,07,23,04,10,10.90
2010,07,23,04,11,10.90
2010,07,23,04,12,10.90
2010,07,23,04,13,10.90
2010,07,23,04,14,10.90
2010,07,23,04,15,10.90
2010,07,23,04,16,10.90
2010,07,23,04,17,10.90
2010,07,23,04,18,10.90
2010,07,23,04,19,10.90
2010,07,23,04,20,10.90
2010,07,23,04,21,10.90
2010,07,23,04,22,10.90
2010,07,23,04,23,10.90
2010,07,23,04,24,10.90
2010,07,23,04,25,10.90
2010,07,23,04,26,10.90
2010,07,23,04,27,11.00
2010,07,23,04,28,11.00
2010,07,23,04,29,10.90
2010,07,23,04,30,10.90
2010,07,23,04,31,10.90
2010,07,23,04,32,11.00
2010,07,23,04,33,10.90
2010,07,23,04,34,10.90
2010,07,23,04,35,10.90
2010,07,23,04,36,10.90
2010,07,23,04,37,10.90
2010,07,23,04,38,10.90
2010,07,23,04,39,10.90
2010,07,23,04,40,10.90
2010,07,23,04,41,10.90
2010,07,23,04,42,10.90
2010,07,23,04,43,10.90
2010,07,23,04,44,10.90
2010,07,23,04,45,10.90
2010,07,23,04,46,10.90
2010,07,23,04,47,10.90
2010,07,23,04,48,10.90
2010,07,23,04,49,10.90
2010,07,23,04,50,10.90
2010,07,23,04,51,11.00
2010,07,23,04,52,11.00
2010,07,23,04,53,11.00
2010,07,23,04,54,11.00
2010,07,23,04,55,11.00
2010,07,23,04,56,10.90
2010,07,23,04,57,10.90
2010,07,23,04,58,10.90
2010,07,23,04,59,10.90
2010,07,23,05,00,10.90
2010,07,23,05,01,10.80
2010,07,23,05,02,10.80
2010,07,23,05,03,10.80
2010,07,23,05,04,10.80
2010,07,23,05,05,10.80
2010,07,23,05,06,10.80
2010,07,23,05,07,10.80
2010,07,23,05,08,10.80
2010,07,23,05,09,10.80
2010,07,23,05,10,10.80
2010,07,23,05,11,10.80
2010,07,23,05,12,10.90
2010,07,23,05,13,10.80
2010,07,23,05,14,10.80
2010,07,23,05,15,10.80
2010,07,23,05,16,10.80
2010,07,23,05,17,10.80
2010,07,23,05,18,10.80
2010,07,23,05,19,10.80
2010,07,23,05,20,10.80
2010,07,23,05,21,10.80
2010,07,23,05,22,10.70
2010,07,23,05,23,10.70
2010,07,23,05,24,10.70
2010,07,23,05,25,10.70
2010,07,23,05,26,10.70
2010,07,23,05,27,10.70
2010,07,23,05,28,10.70
2010,07,23,05,29,10.70
2010,07,23,05,30,10.70
2010,07,23,05,31,10.70
2010,07,23,05,32,10.70
2010,07,23,05,33,10.70
2010,07,23,05,34,10.70
2010,07,23,05,35,10.70
2010,07,23,05,36,10.70
2010,07,23,05,37,10.70
2010,07,23,05,38,10.70
2010,07,23,05,39,10.70
2010,07,23,05,40,10.70
2010,07,23,05,41,10.80
2010,07,23,05,42,10.80
2010,07,23,05,43,10.70
2010,07,23,05,44,10.70
2010,07,23,05,45,10.70
2010,07,23,05,46,10.70
2010,07,23,05,47,10.70
2010,07,23,05,48,10.70
2010,07,23,05,49,10.70
2010,07,23,05,50,10.70
2010,07,23,05,51,10.70
2010,07,23,05,52,10.70
2010,07,23,05,53,10.60
2010,07,23,05,54,10.60
2010,07,23,05,55,10.60
2010,07,23,05,56,10.60
2010,07,23,05,57,10.60
2010,07,23,05,58,10.60
2010,07,23,05,59,10.60
2010,07,23,06,00,10.60
2010,07,23,06,01,10.60
2010,07,23,06,02,10.60
2010,07,23,06,03,10.60
2010,07,23,06,04,10.50
2010,07,23,06,05,10.50
2010,07,23,06,06,10.50
2010,07,23,06,07,10.50
2010,07,23,06,08,10.50
2010,07,23,06,09,10.50
2010,07,23,06,10,10.50
2010,07,23,06,11,10.50
2010,07,23,06,12,10.50
2010,07,23,06,13,10.50
2010,07,23,06,14,10.60
2010,07,23,06,15,10.60
2010,07,23,06,16,10.60
2010,07,23,06,17,10.60
2010,07,23,06,18,10.60
2010,07,23,06,19,10.60
2010,07,23,06,20,10.60
2010,07,23,06,21,10.60
2010,07,23,06,22,10.60
2010,07,23,06,23,10.60
2010,07,23,06,24,10.60
2010,07,23,06,25,10.60
2010,07,23,06,26,10.60
2010,07,23,06,27,10.60
2010,07,23,06,28,10.60
2010,07,23,06,29,10.70
2010,07,23,06,30,10.70
2010,07,23,06,31,10.70
2010,07,23,06,32,10.80
2010,07,23,06,33,10.80
2010,07,23,06,34,10.90
2010,07,23,06,35,10.90
2010,07,23,06,36,10.90
2010,07,23,06,37,11.00
2010,07,23,06,38,11.00
2010,07,23,06,39,11.00
2010,07,23,06,40,11.00
2010,07,23,06,41,11.00
2010,07,23,06,42,11.00
2010,07,23,06,43,11.00
2010,07,23,06,44,11.00
2010,07,23,06,45,11.10
2010,07,23,06,46,11.10
2010,07,23,06,47,11.10
2010,07,23,06,48,11.10
2010,07,23,06,49,11.10
2010,07,23,06,50,11.10
2010,07,23,06,51,11.20
2010,07,23,06,52,11.20
2010,07,23,06,53,11.30
2010,07,23,06,54,11.30
2010,07,23,06,55,11.30
2010,07,23,06,56,11.30
2010,07,23,06,57,11.40
2010,07,23,06,58,11.40
2010,07,23,06,59,11.40
2010,07,23,07,00,11.40
2010,07,23,07,01,11.40
2010,07,23,07,02,11.40
2010,07,23,07,03,11.50
2010,07,23,07,04,11.50
2010,07,23,07,05,11.50
2010,07,23,07,06,11.60
2010,07,23,07,07,11.60
2010,07,23,07,08,11.60
2010,07,23,07,09,11.60
2010,07,23,07,10,11.60
2010,07,23,07,11,11.60
2010,07,23,07,12,11.70
2010,07,23,07,13,11.70
2010,07,23,07,14,11.70
2010,07,23,07,15,11.70
2010,07,23,07,16,11.80
2010,07,23,07,17,11.80
2010,07,23,07,18,11.90
2010,07,23,07,19,11.90
2010,07,23,07,20,11.90
2010,07,23,07,21,11.90
2010,07,23,07,22,11.90
2010,07,23,07,23,12.00
2010,07,23,07,24,12.00
2010,07,23,07,25,12.10
2010,07,23,07,26,12.10
2010,07,23,07,27,12.10
2010,07,23,07,28,12.10
2010,07,23,07,29,12.10
2010,07,23,07,30,12.20
2010,07,23,07,31,12.20
2010,07,23,07,32,12.20
2010,07,23,07,33,12.30
2010,07,23,07,34,12.30
2010,07,23,07,35,12.30
2010,07,23,07,36,12.30
2010,07,23,07,37,12.40
2010,07,23,07,38,12.40
2010,07,23,07,39,12.50
2010,07,23,07,40,12.50
2010,07,23,07,41,12.50
2010,07,23,07,42,12.60
2010,07,23,07,43,12.60
2010,07,23,07,44,12.60
2010,07,23,07,45,12.60
2010,07,23,07,46,12.60
2010,07,23,07,47,12.70
2010,07,23,07,48,12.70
2010,07,23,07,49,12.80
2010,07,23,07,50,12.80
2010,07,23,07,51,12.80
2010,07,23,07,52,12.90
2010,07,23,07,53,12.90
2010,07,23,07,54,13.00
2010,07,23,07,55,13.00
2010,07,23,07,56,13.00
2010,07,23,07,57,13.10
2010,07,23,07,58,13.10
2010,07,23,07,59,13.20
2010,07,23,08,00,13.20
2010,07,23,08,01,13.20
2010,07,23,08,02,13.30
2010,07,23,08,03,13.30
2010,07,23,08,04,13.30
2010,07,23,08,05,13.40
2010,07,23,08,06,13.40
2010,07,23,08,07,13.50
2010,07,23,08,08,13.50
2010,07,23,08,09,13.50
2010,07,23,08,10,13.60
2010,07,23,08,11,13.60
2010,07,23,08,12,13.70
2010,07,23,08,13,13.70
2010,07,23,08,14,13.80
2010,07,23,08,15,13.90
2010,07,23,08,16,14.00
2010,07,23,08,17,14.10
2010,07,23,08,18,14.20
2010,07,23,08,19,14.30
2010,07,23,08,20,14.30
2010,07,23,08,21,14.40
2010,07,23,08,22,14.50
2010,07,23,08,23,14.60
2010,07,23,08,24,14.70
2010,07,23,08,25,14.80
2010,07,23,08,26,14.80
2010,07,23,08,27,15.00
2010,07,23,08,28,15.00
2010,07,23,08,29,15.00
2010,07,23,08,30,15.20
2010,07,23,08,31,15.30
2010,07,23,08,32,15.40
2010,07,23,08,33,15.40
2010,07,23,08,34,15.50
2010,07,23,08,35,15.60
2010,07,23,08,36,15.70
2010,07,23,08,37,15.80
2010,07,23,08,38,15.90
2010,07,23,08,39,16.00
2010,07,23,08,40,16.00
2010,07,23,08,41,16.10
2010,07,23,08,42,16.20
2010,07,23,08,43,16.20
2010,07,23,08,44,16.30
2010,07,23,08,45,16.40
2010,07,23,08,46,16.40
2010,07,23,08,47,16.50
2010,07,23,08,48,16.50
2010,07,23,08,49,16.50
2010,07,23,08,50,16.60
2010,07,23,08,51,16.60
2010,07,23,08,52,16.60
2010,07,23,08,53,16.70
2010,07,23,08,54,16.70
2010,07,23,08,55,16.70
2010,07,23,08,56,16.80
2010,07,23,08,57,16.80
2010,07,23,08,58,16.90
2010,07,23,08,59,16.90
2010,07,23,09,00,17.00
2010,07,23,09,01,17.10
2010,07,23,09,02,17.10
2010,07,23,09,03,17.20
2010,07,23,09,04,17.20
2010,07,23,09,05,17.30
2010,07,23,09,06,17.30
2010,07,23,09,07,17.40
2010,07,23,09,08,17.40
2010,07,23,09,09,17.50
2010,07,23,09,10,17.50
2010,07,23,09,11,17.60
2010,07,23,09,12,17.60
2010,07,23,09,13,17.60
2010,07,23,09,14,17.70
2010,07,23,09,15,17.70
2010,07,23,09,16,17.70
2010,07,23,09,17,17.80
2010,07,23,09,18,17.80
2010,07,23,09,19,17.80
2010,07,23,09,20,17.90
2010,07,23,09,21,17.90
2010,07,23,09,22,17.90
2010,07,23,09,23,17.90
2010,07,23,09,24,17.90
2010,07,23,09,25,17.90
2010,07,23,09,26,17.90
2010,07,23,09,27,18.00
2010,07,23,09,28,18.00
2010,07,23,09,29,18.10
2010,07,23,09,30,18.10
2010,07,23,09,31,18.10
2010,07,23,09,32,18.20
2010,07,23,09,33,18.20
2010,07,23,09,34,18.20
2010,07,23,09,35,18.20
2010,07,23,09,36,18.20
2010,07,23,09,37,18.20
2010,07,23,09,38,18.20
2010,07,23,09,39,18.20
2010,07,23,09,40,18.30
2010,07,23,09,41,18.30
2010,07,23,09,42,18.30
2010,07,23,09,43,18.40
2010,07,23,09,44,18.40
2010,07,23,09,45,18.50
2010,07,23,09,46,18.60
2010,07,23,09,47,18.60
2010,07,23,09,48,18.60
2010,07,23,09,49,18.60
2010,07,23,09,50,18.70
2010,07,23,09,51,18.70
2010,07,23,09,52,18.80
2010,07,23,09,53,18.80
2010,07,23,09,54,18.90
2010,07,23,09,55,18.90
2010,07,23,09,56,18.90
2010,07,23,09,57,18.90
2010,07,23,09,58,18.70
2010,07,23,09,59,18.70
2010,07,23,10,00,18.60
2010,07,23,10,01,18.60
2010,07,23,10,02,18.60
2010,07,23,10,03,18.60
2010,07,23,10,04,18.60
2010,07,23,10,05,18.60
2010,07,23,10,06,18.60
2010,07,23,10,07,18.70
2010,07,23,10,08,18.70
2010,07,23,10,09,18.70
2010,07,23,10,10,18.80
2010,07,23,10,11,18.90
2010,07,23,10,12,18.90
2010,07,23,10,13,19.00
2010,07,23,10,14,19.10
2010,07,23,10,15,19.20
2010,07,23,10,16,19.20
2010,07,23,10,17,19.20
2010,07,23,10,18,19.20
2010,07,23,10,19,19.20
2010,07,23,10,20,19.20
2010,07,23,10,21,19.30
2010,07,23,10,22,19.30
2010,07,23,10,23,19.30
2010,07,23,10,24,19.30
2010,07,23,10,25,19.40
2010,07,23,10,26,19.40
2010,07,23,10,27,19.40
2010,07,23,10,28,19.40
2010,07,23,10,29,19.30
2010,07,23,10,30,19.30
2010,07,23,10,31,19.40
2010,07,23,10,32,19.40
2010,07,23,10,33,19.50
2010,07,23,10,34,19.60
2010,07,23,10,35,19.60
2010,07,23,10,36,19.70
2010,07,23,10,37,19.70
2010,07,23,10,38,19.80
2010,07,23,10,39,19.80
2010,07,23,10,40,19.80
2010,07,23,10,41,19.80
2010,07,23,10,42,19.80
2010,07,23,10,43,19.80
2010,07,23,10,44,19.90
2010,07,23,10,45,20.00
2010,07,23,10,46,20.00
2010,07,23,10,47,20.00
2010,07,23,10,48,20.10
2010,07,23,10,49,20.10
2010,07,23,10,50,20.00
2010,07,23,10,51,20.00
2010,07,23,10,52,20.00
2010,07,23,10,53,20.00
2010,07,23,10,54,20.00
2010,07,23,10,55,20.00
2010,07,23,10,56,20.10
2010,07,23,10,57,20.20
2010,07,23,10,58,20.30
2010,07,23,10,59,20.40
2010,07,23,11,00,20.50
2010,07,23,11,01,20.50
2010,07,23,11,02,20.70
2010,07,23,11,03,20.80
2010,07,23,11,04,20.90
2010,07,23,11,05,21.10
2010,07,23,11,06,21.20
2010,07,23,11,07,21.10
2010,07,23,11,08,21.10
2010,07,23,11,09,21.10
2010,07,23,11,10,20.90
2010,07,23,11,11,20.90
2010,07,23,11,12,20.80
2010,07,23,11,13,20.90
2010,07,23,11,14,21.00
2010,07,23,11,15,21.10
2010,07,23,11,16,21.10
2010,07,23,11,17,21.20
2010,07,23,11,18,21.20
2010,07,23,11,19,21.20
2010,07,23,11,20,21.20
2010,07,23,11,21,21.20
2010,07,23,11,22,21.10
2010,07,23,11,23,21.00
2010,07,23,11,24,20.90
2010,07,23,11,25,20.90
2010,07,23,11,26,20.90
2010,07,23,11,27,20.90
2010,07,23,11,28,20.80
2010,07,23,11,29,20.80
2010,07,23,11,30,20.80
2010,07,23,11,31,20.70
2010,07,23,11,32,20.50
2010,07,23,11,33,20.40
2010,07,23,11,34,20.30
2010,07,23,11,35,20.30
2010,07,23,11,36,20.40
2010,07,23,11,37,20.40
2010,07,23,11,38,20.30
2010,07,23,11,39,20.30
2010,07,23,11,40,20.20
2010,07,23,11,41,20.10
2010,07,23,11,42,20.00
2010,07,23,11,43,19.90
2010,07,23,11,44,19.90
2010,07,23,11,45,19.80
2010,07,23,11,46,19.80
2010,07,23,11,47,19.70
2010,07,23,11,48,19.70
2010,07,23,11,49,19.70
2010,07,23,11,50,19.70
2010,07,23,11,51,19.80
2010,07,23,11,52,19.90
2010,07,23,11,53,20.00
2010,07,23,11,54,20.00
2010,07,23,11,55,19.90
2010,07,23,11,56,19.90
2010,07,23,11,57,19.90
2010,07,23,11,58,20.00
2010,07,23,11,59,20.00
2010,07,23,12,00,20.00
2010,07,23,12,01,20.00
2010,07,23,12,02,19.90
2010,07,23,12,03,19.90
2010,07,23,12,04,19.90
2010,07,23,12,05,19.90
2010,07,23,12,06,20.00
2010,07,23,12,07,20.10
2010,07,23,12,08,20.10
2010,07,23,12,09,20.10
2010,07,23,12,10,20.00
2010,07,23,12,11,19.90
2010,07,23,12,12,19.80
2010,07,23,12,13,19.70
2010,07,23,12,14,19.80
2010,07,23,12,15,19.80
2010,07,23,12,16,19.80
2010,07,23,12,17,19.70
2010,07,23,12,18,19.60
2010,07,23,12,19,19.50
2010,07,23,12,20,19.50
2010,07,23,12,21,19.50
2010,07,23,12,22,19.50
2010,07,23,12,23,19.60
2010,07,23,12,24,19.70
2010,07,23,12,25,19.90
2010,07,23,12,26,20.00
2010,07,23,12,27,20.20
2010,07,23,12,28,20.30
2010,07,23,12,29,20.30
2010,07,23,12,30,20.30
2010,07,23,12,31,20.30
2010,07,23,12,32,20.30
2010,07,23,12,33,20.40
2010,07,23,12,34,20.50
2010,07,23,12,35,20.60
2010,07,23,12,36,20.80
2010,07,23,12,37,20.90
2010,07,23,12,38,21.00
2010,07,23,12,39,21.00
2010,07,23,12,40,20.90
2010,07,23,12,41,20.90
2010,07,23,12,42,20.90
2010,07,23,12,43,20.80
2010,07,23,12,44,20.70
2010,07,23,12,45,20.70
2010,07,23,12,46,20.60
2010,07,23,12,47,20.40
2010,07,23,12,48,20.30
2010,07,23,12,49,20.20
2010,07,23,12,50,20.20
2010,07,23,12,51,20.20
2010,07,23,12,52,20.30
2010,07,23,12,53,20.40
2010,07,23,12,54,20.60
2010,07,23,12,55,20.70
2010,07,23,12,56,20.80
2010,07,23,12,57,20.80
2010,07,23,12,58,20.80
2010,07,23,12,59,20.80
2010,07,23,13,00,20.90
2010,07,23,13,01,20.90
2010,07,23,13,02,21.00
2010,07,23,13,03,21.10
2010,07,23,13,04,21.10
2010,07,23,13,05,21.00
2010,07,23,13,06,20.90
2010,07,23,13,07,20.80
2010,07,23,13,08,20.60
2010,07,23,13,09,20.50
2010,07,23,13,10,20.50
2010,07,23,13,11,20.50
2010,07,23,13,12,20.50
2010,07,23,13,13,20.50
2010,07,23,13,14,20.50
